| time (UTC) | temp C | wind direction | speed KPH | gust KPH | rain 1hr cm | rain 24hr cm | rain mn cm | humidity % | barometer mb |
| 20260903004531 | 36 | 178 | 14.5 | 35.4 | 0.00 | 0.00 | 0.00 | 7 | 948.5 |
| 20260903003023 | 37 | 182 | 20.9 | 33.8 | 0.00 | 0.00 | 0.00 | 7 | 948.4 |
| 20260903001522 | 37 | 136 | 24.1 | 38.6 | 0.00 | 0.00 | 0.00 | 7 | 948.4 |
| 20260903000023 | 37 | 148 | 12.9 | 30.6 | 0.00 | 0.00 | 0.00 | 9 | 948.4 |
| 20260902234521 | 37 | 14.5 | 25.7 | 0.00 | 0.00 | 0.00 | 8 | 948.6 | |
| 20260902233028 | 37 | 139 | 12.9 | 24.1 | 0.00 | 0.00 | 0.00 | 9 | 948.7 |
| 20260902231518 | 36 | 152 | 24.1 | 35.4 | 0.00 | 0.00 | 0.00 | 10 | 948.8 |
| 20260902230015 | 36 | 16.1 | 32.2 | 0.00 | 0.00 | 0.00 | 10 | 948.9 | |
| 20260902224514 | 36 | 169 | 14.5 | 32.2 | 0.00 | 0.00 | 0.00 | 10 | 949.2 |
| 20260902223011 | 37 | 16.1 | 32.2 | 0.00 | 0.00 | 0.00 | 10 | 949.3 | |
| 20260902221507 | 36 | 168 | 17.7 | 25.7 | 0.00 | 0.00 | 0.00 | 11 | 949.7 |
| 20260902220007 | 36 | 14.5 | 38.6 | 0.00 | 0.00 | 0.00 | 11 | 949.8 | |
| 20260902214505 | 36 | 171 | 22.5 | 40.2 | 0.00 | 0.00 | 0.00 | 11 | 950.1 |
| 20260902213003 | 36 | 163 | 11.3 | 38.6 | 0.00 | 0.00 | 0.00 | 12 | 950.1 |
| 20260902211503 | 36 | 188 | 19.3 | 30.6 | 0.00 | 0.00 | 0.00 | 11 | 950.4 |
| 20260902210002 | 36 | 224 | 14.5 | 27.4 | 0.00 | 0.00 | 0.00 | 12 | 950.6 |
| 20260902204501 | 35 | 214 | 12.9 | 27.4 | 0.00 | 0.00 | 0.00 | 12 | 950.8 |
| 20260902203101 | 35 | 229 | 16.1 | 29.0 | 0.00 | 0.00 | 0.00 | 11 | 951.1 |
| 20260902201630 | 35 | 240 | 16.1 | 24.1 | 0.00 | 0.00 | 0.00 | 12 | 951.4 |
| 20260902200109 | 35 | 192 | 16.1 | 24.1 | 0.00 | 0.00 | 0.00 | 12 | 951.5 |
| 20260902194559 | 34 | 140 | 17.7 | 25.7 | 0.00 | 0.00 | 0.00 | 12 | 951.5 |
| 20260902193055 | 34 | 164 | 19.3 | 30.6 | 0.00 | 0.00 | 0.00 | 12 | 951.7 |
| 20260902191553 | 33 | 241 | 12.9 | 27.4 | 0.00 | 0.00 | 0.00 | 14 | 951.9 |
| 20260902190051 | 33 | 191 | 11.3 | 25.7 | 0.00 | 0.00 | 0.00 | 15 | 952.0 |
| 20260902184550 | 33 | 142 | 9.7 | 24.1 | 0.00 | 0.00 | 0.00 | 16 | 952.2 |
| 20260902183053 | 33 | 229 | 12.9 | 25.7 | 0.00 | 0.00 | 0.00 | 16 | 952.5 |
| 20260902181554 | 32 | 11.3 | 17.7 | 0.00 | 0.00 | 0.00 | 16 | 952.6 | |
| 20260902180056 | 32 | 159 | 8.0 | 17.7 | 0.00 | 0.00 | 0.00 | 17 | 952.7 |
| 20260902174545 | 31 | 198 | 14.5 | 29.0 | 0.00 | 0.00 | 0.00 | 19 | 952.9 |
| 20260902173043 | 31 | 238 | 12.9 | 22.5 | 0.00 | 0.00 | 0.00 | 20 | 952.9 |
| 20260902171545 | 31 | 243 | 16.1 | 27.4 | 0.00 | 0.00 | 0.00 | 21 | 952.9 |
| 20260902170041 | 30 | 206 | 8.0 | 17.7 | 0.00 | 0.00 | 0.00 | 22 | 952.8 |
| 20260902164551 | 30 | 243 | 11.3 | 17.7 | 0.00 | 0.00 | 0.00 | 22 | 952.8 |
| 20260902163043 | 30 | 240 | 4.8 | 14.5 | 0.00 | 0.00 | 0.00 | 21 | 952.8 |
| 20260902161539 | 30 | 242 | 6.4 | 17.7 | 0.00 | 0.00 | 0.00 | 20 | 952.7 |
| 20260902160038 | 29 | 241 | 11.3 | 17.7 | 0.00 | 0.00 | 0.00 | 19 | 952.7 |
| 20260902154543 | 29 | 9.7 | 14.5 | 0.00 | 0.00 | 0.00 | 20 | 952.6 | |
| 20260902153038 | 29 | 259 | 6.4 | 14.5 | 0.00 | 0.00 | 0.00 | 20 | 952.5 |
| 20260902151534 | 29 | 207 | 6.4 | 12.9 | 0.00 | 0.00 | 0.00 | 19 | 952.4 |
| 20260902150032 | 29 | 233 | 4.8 | 16.1 | 0.00 | 0.00 | 0.00 | 19 | 952.4 |
| 20260902144530 | 28 | 182 | 3.2 | 8.0 | 0.00 | 0.00 | 0.00 | 21 | 952.3 |
| 20260902143028 | 28 | 196 | 0.0 | 4.8 | 0.00 | 0.00 | 0.00 | 24 | 952.1 |
| 20260902141528 | 27 | 252 | 1.6 | 4.8 | 0.00 | 0.00 | 0.00 | 24 | 952.0 |
| 20260902140034 | 27 | 120 | 6.4 | 12.9 | 0.00 | 0.00 | 0.00 | 24 | 951.7 |
| 20260902134523 | 27 | 110 | 9.7 | 14.5 | 0.00 | 0.00 | 0.00 | 25 | 951.5 |
| 20260902133022 | 26 | 104 | 9.7 | 14.5 | 0.00 | 0.00 | 0.00 | 29 | 951.5 |
| 20260902131519 | 26 | 6.4 | 9.7 | 0.00 | 0.00 | 0.00 | 28 | 951.4 | |
| 20260902130017 | 27 | 6.4 | 9.7 | 0.00 | 0.00 | 0.00 | 27 | 951.3 | |
| 20260902124518 | 27 | 143 | 6.4 | 11.3 | 0.00 | 0.00 | 0.00 | 25 | 951.3 |
| 20260902123014 | 27 | 135 | 6.4 | 11.3 | 0.00 | 0.00 | 0.00 | 28 | 951.1 |
| 20260902121509 | 27 | 151 | 6.4 | 12.9 | 0.00 | 0.00 | 0.00 | 29 | 950.9 |
| 20260902120010 | 27 | 139 | 6.4 | 12.9 | 0.00 | 0.00 | 0.00 | 32 | 951.0 |
| 20260902114508 | 27 | 135 | 4.8 | 8.0 | 0.00 | 0.00 | 0.00 | 32 | 951.0 |
| 20260902113006 | 28 | 137 | 1.6 | 6.4 | 0.00 | 0.00 | 0.00 | 30 | 950.9 |
| 20260902111503 | 28 | 133 | 4.8 | 8.0 | 0.00 | 0.00 | 0.00 | 27 | 950.8 |
| 20260902110111 | 28 | 179 | 4.8 | 9.7 | 0.00 | 0.00 | 0.00 | 25 | 950.7 |
| 20260902104559 | 29 | 208 | 6.4 | 11.3 | 0.00 | 0.00 | 0.00 | 27 | 950.7 |
| 20260902103106 | 28 | 179 | 6.4 | 16.1 | 0.00 | 0.00 | 0.00 | 37 | 950.5 |
| 20260902101558 | 29 | 193 | 9.7 | 16.1 | 0.00 | 0.00 | 0.00 | 38 | 950.6 |
| 20260902100054 | 29 | 1.6 | 9.7 | 0.00 | 0.00 | 0.00 | 41 | 950.5 | |
| 20260902094551 | 29 | 193 | 4.8 | 9.7 | 0.00 | 0.00 | 0.00 | 41 | 950.5 |
| 20260902093111 | 30 | 236 | 6.4 | 12.9 | 0.00 | 0.00 | 0.00 | 42 | 950.4 |
| 20260902091552 | 30 | 6.4 | 16.1 | 0.00 | 0.00 | 0.00 | 42 | 950.3 | |
| 20260902090049 | 30 | 198 | 11.3 | 19.3 | 0.00 | 0.00 | 0.00 | 42 | 950.4 |
| 20260902084552 | 31 | 203 | 6.4 | 24.1 | 0.00 | 0.00 | 0.00 | 40 | 950.3 |
| 20260902083046 | 31 | 195 | 14.5 | 22.5 | 0.00 | 0.00 | 0.00 | 40 | 950.2 |
| 20260902081533 | 32 | 179 | 14.5 | 29.0 | 0.00 | 0.00 | 0.00 | 39 | 950.0 |
| 20260902080029 | 32 | 165 | 12.9 | 29.0 | 0.00 | 0.00 | 0.00 | 37 | 949.9 |
| 20260902074528 | 32 | 151 | 17.7 | 32.2 | 0.00 | 0.00 | 0.00 | 37 | 949.8 |
| 20260902073026 | 32 | 160 | 20.9 | 35.4 | 0.00 | 0.00 | 0.00 | 36 | 949.7 |
| 20260902071525 | 33 | 155 | 14.5 | 33.8 | 0.00 | 0.00 | 0.00 | 32 | 949.6 |
| 20260902070021 | 33 | 159 | 17.7 | 32.2 | 0.00 | 0.00 | 0.00 | 26 | 949.7 |
| 20260902064517 | 33 | 205 | 9.7 | 24.1 | 0.00 | 0.00 | 0.00 | 23 | 949.6 |
| 20260902063022 | 33 | 158 | 11.3 | 25.7 | 0.00 | 0.00 | 0.00 | 22 | 949.5 |
| 20260902060020 | 33 | 131 | 9.7 | 16.1 | 0.00 | 0.00 | 0.00 | 22 | 949.3 |
| 20260902054515 | 33 | 148 | 9.7 | 20.9 | 0.00 | 0.00 | 0.00 | 22 | 949.3 |
| 20260902053017 | 33 | 143 | 11.3 | 17.7 | 0.00 | 0.00 | 0.00 | 21 | 949.4 |
| 20260902051513 | 33 | 145 | 11.3 | 24.1 | 0.00 | 0.00 | 0.00 | 21 | 949.6 |
| 20260902050013 | 33 | 155 | 11.3 | 20.9 | 0.00 | 0.00 | 0.00 | 21 | 949.5 |
| 20260902044513 | 33 | 144 | 11.3 | 25.7 | 0.00 | 0.00 | 0.00 | 21 | 949.6 |
| 20260902043012 | 34 | 145 | 11.3 | 20.9 | 0.00 | 0.00 | 0.00 | 20 | 949.5 |
| 20260902041512 | 34 | 197 | 14.5 | 27.4 | 0.00 | 0.00 | 0.00 | 20 | 949.4 |
| 20260902040013 | 34 | 198 | 12.9 | 25.7 | 0.00 | 0.00 | 0.00 | 20 | 949.2 |
| 20260902034511 | 34 | 193 | 9.7 | 22.5 | 0.00 | 0.00 | 0.00 | 20 | 949.1 |
| 20260902033009 | 34 | 206 | 14.5 | 22.5 | 0.00 | 0.00 | 0.00 | 20 | 948.8 |
| 20260902031510 | 35 | 230 | 11.3 | 22.5 | 0.00 | 0.00 | 0.00 | 19 | 948.6 |
| 20260902030007 | 35 | 184 | 12.9 | 20.9 | 0.00 | 0.00 | 0.00 | 20 | 948.4 |
| 20260902024518 | 35 | 217 | 9.7 | 25.7 | 0.00 | 0.00 | 0.00 | 19 | 948.2 |
| 20260902023006 | 36 | 206 | 12.9 | 25.7 | 0.00 | 0.00 | 0.00 | 19 | 948.2 |
| 20260902021505 | 36 | 219 | 14.5 | 25.7 | 0.00 | 0.00 | 0.00 | 19 | 947.9 |
| 20260902020006 | 36 | 206 | 17.7 | 35.4 | 0.00 | 0.00 | 0.00 | 19 | 947.8 |
| 20260902014606 | 37 | 195 | 19.3 | 33.8 | 0.00 | 0.00 | 0.00 | 18 | 947.9 |
| 20260902013005 | 37 | 225 | 24.1 | 38.6 | 0.00 | 0.00 | 0.00 | 18 | 947.8 |
| 20260902011502 | 37 | 172 | 14.5 | 37.0 | 0.00 | 0.00 | 0.00 | 18 | 947.8 |
| 20260902010002 | 37 | 243 | 17.7 | 45.1 | 0.00 | 0.00 | 0.00 | 18 | 947.9 |